User: anonymous   Login
Location: Unspecified
(0.0000°N, 0.0000°E)
Time: 08:10:47
(UTC+00:00)
Language:

Diapason D-1A - Orbit

View from above orbital plane
View from above orbital plane
View from above satellite
View from above satellite

Ground track
Ground track

The orbit data is extracted from the following two-line orbital elements,

1  2016U 66013A   19345.52489677 +.00000169 +00000-0 +56898-4 0  9991
2  2016 034.0899 278.0489 1186899 092.8747 280.8005 12.59808903439779
Epoch (UTC): 11 December 2019 12:35:51
Eccentricity: 0.1186899
inclination: 34.0899°
perigee height: 498 km
apogee height: 2350 km
right ascension of ascending node: 278.0489°
argument of perigee: 92.8747°
revolutions per day: 12.59808903
mean anomaly at epoch: 280.8005°
orbit number at epoch: 43977

The dashed part of the orbit path shows where the satellite is in the earth's shadow,  

DLR